User: anonymous   Login
Location: Unspecified
(0.0000°N, 0.0000°E)
Time: 17:55:31
(UTC+00:00)
Language:

NOAA 15 - Orbit

View from above orbital plane
View from above orbital plane
View from above satellite
View from above satellite

Ground track
Ground track

The orbit data is extracted from the following two-line orbital elements,

1 25338U 98030A   20226.83081225 +.00000042 +00000-0 +35987-4 0  9994
2 25338 098.7144 251.5813 0011587 095.8664 264.3837 14.25984977157159
Epoch (UTC): 13 August 2020 19:56:22
Eccentricity: 0.0011587
inclination: 98.7144°
perigee height: 797 km
apogee height: 813 km
right ascension of ascending node: 251.5813°
argument of perigee: 95.8664°
revolutions per day: 14.25984977
mean anomaly at epoch: 264.3837°
orbit number at epoch: 15715

The dashed part of the orbit path shows where the satellite is in the earth's shadow,  

DLR